User: anonymous   Login
Location: Unspecified
(0.0000°N, 0.0000°E)
Time: 00:16:56
(UTC+00:00)
Language:

SAUDISAT 1B - Orbit

View from above orbital plane
View from above orbital plane
View from above satellite
View from above satellite

Ground track
Ground track

The orbit data is extracted from the following two-line orbital elements,

1 26549U 00057E   17231.55637485  .00000005  00000-0  18830-4 0  9994
2 26549  64.5526 285.1981 0040149 215.0385 144.8080 14.83382601913040
Epoch (UTC): 19 August 2017 13:21:10
Eccentricity: 0.0040149
inclination: 64.5526°
perigee height: 590 km
apogee height: 647 km
right ascension of ascending node: 285.1981°
argument of perigee: 215.0385°
revolutions per day: 14.83382601
mean anomaly at epoch: 144.8080°
orbit number at epoch: 91304

The dashed part of the orbit path shows where the satellite is in the earth's shadow,  

DLR